Time,TemperatureF,DewpointF,PressureIn,WindDirection,WindDirectionDegrees,WindSpeedMPH,WindSpeedGustMPH,Humidity,HourlyPrecipIn,Conditions,Clouds,dailyrainin,SoftwareType,DateUTC
2013-01-16 00:01:00,30.5,27.3,30.26,WNW,300,0.0,0.0,88,0.00,,,0.00,WUHU216DAVISWMX,2013-01-16 05:01:00,
2013-01-16 00:02:00,30.5,27.3,30.26,WNW,300,0.0,0.0,88,0.00,,,0.00,WUHU216DAVISWMX,2013-01-16 05:02:00,
2013-01-16 00:07:00,30.4,27.2,30.27,WNW,300,0.0,0.0,88,0.00,,,0.00,WUHU216DAVISWMX,2013-01-16 05:07:00,
2013-01-16 00:12:00,30.3,27.4,30.27,WNW,301,0.0,0.0,89,0.00,,,0.00,WUHU216DAVISWMX,2013-01-16 05:12:00,
2013-01-16 00:17:00,30.2,27.3,30.28,WNW,300,0.0,0.0,89,0.00,,,0.00,WUHU216DAVISWMX,2013-01-16 05:17:00,
2013-01-16 00:22:00,30.2,27.3,30.28,WNW,301,0.0,0.0,89,0.00,,,0.00,WUHU216DAVISWMX,2013-01-16 05:22:00,
2013-01-16 00:27:00,30.4,27.8,30.28,WNW,300,0.0,0.0,90,0.00,,,0.00,WUHU216DAVISWMX,2013-01-16 05:27:00,
2013-01-16 00:32:00,30.5,27.6,30.28,WNW,300,0.0,0.0,89,0.00,,,0.00,WUHU216DAVISWMX,2013-01-16 05:32:00,
2013-01-16 00:37:00,30.5,27.6,30.28,WNW,301,0.0,0.0,89,0.00,,,0.00,WUHU216DAVISWMX,2013-01-16 05:37:00,
2013-01-16 00:42:00,30.5,27.6,30.28,WNW,300,0.0,0.0,89,0.00,,,0.00,WUHU216DAVISWMX,2013-01-16 05:42:00,
2013-01-16 00:47:00,30.5,27.6,30.28,WNW,300,0.0,0.0,89,0.00,,,0.00,WUHU216DAVISWMX,2013-01-16 05:47:00,
2013-01-16 00:52:00,30.4,27.5,30.28,WNW,301,0.0,0.0,89,0.00,,,0.00,WUHU216DAVISWMX,2013-01-16 05:52:00,
2013-01-16 00:57:00,30.5,27.9,30.27,WNW,300,0.0,0.0,90,0.00,,,0.00,WUHU216DAVISWMX,2013-01-16 05:57:00,
2013-01-16 01:02:00,30.6,27.7,30.27,WNW,300,0.0,0.0,89,0.00,,,0.00,WUHU216DAVISWMX,2013-01-16 06:02:00,
2013-01-16 01:07:00,30.5,27.6,30.27,WNW,300,0.0,0.0,89,0.00,,,0.00,WUHU216DAVISWMX,2013-01-16 06:07:00,
2013-01-16 01:12:00,30.6,27.7,30.27,WNW,300,0.0,0.0,89,0.00,,,0.00,WUHU216DAVISWMX,2013-01-16 06:12:00,
2013-01-16 01:17:00,30.6,27.7,30.26,WNW,301,0.0,0.0,89,0.00,,,0.00,WUHU216DAVISWMX,2013-01-16 06:17:00,
2013-01-16 01:22:00,30.7,27.8,30.27,WNW,300,0.0,0.0,89,0.00,,,0.00,WUHU216DAVISWMX,2013-01-16 06:22:00,
2013-01-16 01:27:00,30.7,27.8,30.27,WNW,300,0.0,0.0,89,0.00,,,0.00,WUHU216DAVISWMX,2013-01-16 06:27:00,
2013-01-16 01:32:00,30.6,28.0,30.26,WNW,300,0.0,0.0,90,0.00,,,0.00,WUHU216DAVISWMX,2013-01-16 06:32:00,
2013-01-16 01:37:00,30.7,28.1,30.26,WNW,301,0.0,0.0,90,0.00,,,0.00,WUHU216DAVISWMX,2013-01-16 06:37:00,
2013-01-16 01:42:00,30.7,27.8,30.26,WNW,301,0.0,0.0,89,0.00,,,0.00,WUHU216DAVISWMX,2013-01-16 06:42:00,
2013-01-16 01:47:00,30.7,28.1,30.27,WNW,300,0.0,0.0,90,0.00,,,0.00,WUHU216DAVISWMX,2013-01-16 06:47:00,
2013-01-16 01:52:00,30.7,28.1,30.27,WNW,300,0.0,0.0,90,0.00,,,0.00,WUHU216DAVISWMX,2013-01-16 06:52:00,
2013-01-16 01:57:00,30.7,28.1,30.27,WNW,300,0.0,0.0,90,0.00,,,0.00,WUHU216DAVISWMX,2013-01-16 06:57:00,
2013-01-16 02:02:00,30.7,28.1,30.27,WNW,300,0.0,0.0,90,0.00,,,0.00,WUHU216DAVISWMX,2013-01-16 07:02:00,
2013-01-16 02:07:00,30.7,28.1,30.26,WNW,301,0.0,0.0,90,0.00,,,0.00,WUHU216DAVISWMX,2013-01-16 07:07:00,
2013-01-16 02:12:00,30.7,28.1,30.26,WNW,300,0.0,0.0,90,0.00,,,0.00,WUHU216DAVISWMX,2013-01-16 07:12:00,
2013-01-16 02:17:00,30.7,28.1,30.27,WNW,301,0.0,0.0,90,0.00,,,0.00,WUHU216DAVISWMX,2013-01-16 07:17:00,
2013-01-16 02:22:00,30.8,28.2,30.27,WNW,300,0.0,0.0,90,0.00,,,0.00,WUHU216DAVISWMX,2013-01-16 07:22:00,
2013-01-16 02:27:00,30.7,28.1,30.27,WNW,300,0.0,0.0,90,0.00,,,0.00,WUHU216DAVISWMX,2013-01-16 07:27:00,
2013-01-16 02:32:00,30.7,28.1,30.27,WNW,300,0.0,0.0,90,0.00,,,0.00,WUHU216DAVISWMX,2013-01-16 07:32:00,
2013-01-16 02:37:00,30.8,28.2,30.26,WNW,300,0.0,0.0,90,0.00,,,0.00,WUHU216DAVISWMX,2013-01-16 07:37:00,
2013-01-16 02:42:00,30.8,28.2,30.26,WNW,300,0.0,0.0,90,0.00,,,0.00,WUHU216DAVISWMX,2013-01-16 07:42:00,
2013-01-16 02:47:00,30.7,28.1,30.26,WNW,300,0.0,0.0,90,0.00,,,0.00,WUHU216DAVISWMX,2013-01-16 07:47:00,
2013-01-16 02:52:00,30.8,28.2,30.26,WNW,300,0.0,0.0,90,0.00,,,0.00,WUHU216DAVISWMX,2013-01-16 07:52:00,
2013-01-16 02:57:00,30.8,28.2,30.26,WNW,300,0.0,0.0,90,0.00,,,0.00,WUHU216DAVISWMX,2013-01-16 07:57:00,
2013-01-16 03:02:00,30.8,28.2,30.26,WNW,301,0.0,0.0,90,0.00,,,0.00,WUHU216DAVISWMX,2013-01-16 08:02:00,
2013-01-16 03:07:00,30.8,28.2,30.26,WNW,301,0.0,0.0,90,0.00,,,0.00,WUHU216DAVISWMX,2013-01-16 08:07:00,
2013-01-16 03:12:00,30.9,28.3,30.25,WNW,301,0.0,0.0,90,0.00,,,0.00,WUHU216DAVISWMX,2013-01-16 08:12:00,
2013-01-16 03:17:00,31.0,28.1,30.25,WNW,300,0.0,0.0,89,0.00,,,0.00,WUHU216DAVISWMX,2013-01-16 08:17:00,
2013-01-16 03:22:00,30.9,28.3,30.25,WNW,301,0.0,0.0,90,0.00,,,0.00,WUHU216DAVISWMX,2013-01-16 08:22:00,
2013-01-16 03:27:00,30.9,28.3,30.24,WNW,300,0.0,0.0,90,0.00,,,0.00,WUHU216DAVISWMX,2013-01-16 08:27:00,
2013-01-16 03:32:00,30.9,28.3,30.24,WNW,300,0.0,0.0,90,0.00,,,0.00,WUHU216DAVISWMX,2013-01-16 08:32:00,
2013-01-16 03:37:00,31.0,28.4,30.23,WNW,301,0.0,0.0,90,0.00,,,0.00,WUHU216DAVISWMX,2013-01-16 08:37:00,
2013-01-16 03:42:00,31.0,28.4,30.23,WNW,300,0.0,0.0,90,0.00,,,0.00,WUHU216DAVISWMX,2013-01-16 08:42:00,
2013-01-16 03:47:00,30.9,28.3,30.22,WNW,301,0.0,0.0,90,0.00,,,0.00,WUHU216DAVISWMX,2013-01-16 08:47:00,
2013-01-16 03:52:00,31.0,28.4,30.21,WNW,301,0.0,0.0,90,0.00,,,0.00,WUHU216DAVISWMX,2013-01-16 08:52:00,
2013-01-16 03:57:00,31.0,28.4,30.21,WNW,300,0.0,0.0,90,0.00,,,0.00,WUHU216DAVISWMX,2013-01-16 08:57:00,
2013-01-16 04:02:00,30.9,28.3,30.21,WNW,301,0.0,0.0,90,0.00,,,0.00,WUHU216DAVISWMX,2013-01-16 09:02:00,
2013-01-16 04:07:00,31.0,28.4,30.21,WNW,301,0.0,0.0,90,0.00,,,0.00,WUHU216DAVISWMX,2013-01-16 09:07:00,
2013-01-16 04:13:00,31.0,28.4,30.21,WNW,300,0.0,0.0,90,0.00,,,0.00,WUHU216DAVISWMX,2013-01-16 09:13:00,
2013-01-16 04:18:00,31.0,28.6,30.21,WNW,301,0.0,0.0,91,0.00,,,0.00,WUHU216DAVISWMX,2013-01-16 09:18:00,
2013-01-16 04:23:00,31.0,28.4,30.21,WNW,300,0.0,0.0,90,0.00,,,0.00,WUHU216DAVISWMX,2013-01-16 09:23:00,
2013-01-16 04:28:00,31.0,28.4,30.20,WNW,300,0.0,0.0,90,0.00,,,0.00,WUHU216DAVISWMX,2013-01-16 09:28:00,
2013-01-16 04:33:00,31.0,28.4,30.20,WNW,300,0.0,0.0,90,0.00,,,0.00,WUHU216DAVISWMX,2013-01-16 09:33:00,
2013-01-16 04:38:00,31.1,28.5,30.20,WNW,300,0.0,0.0,90,0.00,,,0.00,WUHU216DAVISWMX,2013-01-16 09:38:00,
2013-01-16 04:43:00,31.1,28.5,30.21,WNW,301,0.0,0.0,90,0.00,,,0.00,WUHU216DAVISWMX,2013-01-16 09:43:00,
2013-01-16 04:48:00,31.1,28.5,30.20,WNW,300,0.0,0.0,90,0.00,,,0.00,WUHU216DAVISWMX,2013-01-16 09:48:00,
2013-01-16 04:53:00,31.1,28.7,30.20,ENE,60,0.0,0.0,91,0.00,,,0.00,WUHU216DAVISWMX,2013-01-16 09:53:00,
2013-01-16 04:58:00,31.2,28.6,30.19,ENE,61,0.0,0.0,90,0.00,,,0.00,WUHU216DAVISWMX,2013-01-16 09:58:00,
2013-01-16 05:03:00,31.1,28.5,30.20,ENE,61,0.0,0.0,90,0.00,,,0.00,WUHU216DAVISWMX,2013-01-16 10:03:00,
2013-01-16 05:08:00,31.0,28.4,30.20,ENE,61,0.0,0.0,90,0.00,,,0.00,WUHU216DAVISWMX,2013-01-16 10:08:00,
2013-01-16 05:13:00,30.9,28.3,30.20,ENE,61,0.0,0.0,90,0.00,,,0.00,WUHU216DAVISWMX,2013-01-16 10:13:00,
2013-01-16 05:18:00,30.7,28.3,30.20,ENE,61,0.0,0.0,91,0.00,,,0.00,WUHU216DAVISWMX,2013-01-16 10:18:00,
2013-01-16 05:23:00,30.6,28.2,30.19,ENE,61,0.0,0.0,91,0.00,,,0.00,WUHU216DAVISWMX,2013-01-16 10:23:00,
2013-01-16 05:28:00,30.5,28.4,30.20,ENE,61,0.0,0.0,92,0.00,,,0.00,WUHU216DAVISWMX,2013-01-16 10:28:00,
2013-01-16 05:33:00,30.4,28.3,30.20,ENE,61,0.0,0.0,92,0.00,,,0.00,WUHU216DAVISWMX,2013-01-16 10:33:00,
2013-01-16 05:38:00,30.5,28.7,30.20,ENE,61,0.0,0.0,93,0.00,,,0.00,WUHU216DAVISWMX,2013-01-16 10:38:00,
2013-01-16 05:43:00,30.5,28.4,30.20,ENE,61,0.0,0.0,92,0.00,,,0.00,WUHU216DAVISWMX,2013-01-16 10:43:00,
2013-01-16 05:48:00,30.3,28.5,30.20,ENE,61,0.0,0.0,93,0.00,,,0.00,WUHU216DAVISWMX,2013-01-16 10:48:00,
2013-01-16 05:53:00,30.4,28.6,30.20,ENE,61,0.0,0.0,93,0.00,,,0.00,WUHU216DAVISWMX,2013-01-16 10:53:00,
2013-01-16 05:58:00,30.3,28.5,30.19,ENE,61,0.0,0.0,93,0.00,,,0.00,WUHU216DAVISWMX,2013-01-16 10:58:00,
2013-01-16 06:03:00,30.3,28.5,30.19,ENE,61,0.0,0.0,93,0.00,,,0.00,WUHU216DAVISWMX,2013-01-16 11:03:00,
2013-01-16 06:08:00,30.2,28.4,30.19,ENE,61,0.0,0.0,93,0.00,,,0.00,WUHU216DAVISWMX,2013-01-16 11:08:00,
2013-01-16 06:13:00,30.3,28.7,30.18,ENE,61,0.0,0.0,94,0.00,,,0.00,WUHU216DAVISWMX,2013-01-16 11:13:00,
2013-01-16 06:18:00,30.2,28.6,30.18,ENE,61,0.0,0.0,94,0.00,,,0.00,WUHU216DAVISWMX,2013-01-16 11:18:00,
2013-01-16 06:23:00,30.2,28.6,30.19,ENE,61,0.0,0.0,94,0.00,,,0.00,WUHU216DAVISWMX,2013-01-16 11:23:00,
2013-01-16 06:28:00,30.2,28.6,30.18,ENE,61,0.0,0.0,94,0.00,,,0.00,WUHU216DAVISWMX,2013-01-16 11:28:00,
2013-01-16 06:33:00,30.1,28.5,30.18,ENE,61,0.0,0.0,94,0.00,,,0.00,WUHU216DAVISWMX,2013-01-16 11:33:00,
2013-01-16 06:38:00,30.1,28.5,30.18,ENE,61,0.0,0.0,94,0.00,,,0.00,WUHU216DAVISWMX,2013-01-16 11:38:00,
2013-01-16 06:43:00,30.1,28.5,30.18,ENE,61,0.0,0.0,94,0.00,,,0.00,WUHU216DAVISWMX,2013-01-16 11:43:00,
2013-01-16 06:48:00,30.2,28.6,30.17,ENE,61,0.0,0.0,94,0.00,,,0.00,WUHU216DAVISWMX,2013-01-16 11:48:00,
2013-01-16 06:53:00,30.1,28.5,30.17,ENE,61,0.0,0.0,94,0.00,,,0.00,WUHU216DAVISWMX,2013-01-16 11:53:00,
2013-01-16 06:58:00,30.0,28.4,30.18,ENE,61,0.0,0.0,94,0.00,,,0.00,WUHU216DAVISWMX,2013-01-16 11:58:00,
2013-01-16 07:03:00,30.1,28.5,30.17,ENE,61,0.0,0.0,94,0.00,,,0.00,WUHU216DAVISWMX,2013-01-16 12:03:00,
2013-01-16 07:08:00,30.2,28.6,30.18,ENE,61,0.0,0.0,94,0.00,,,0.00,WUHU216DAVISWMX,2013-01-16 12:08:00,
2013-01-16 07:13:00,30.1,28.5,30.17,ENE,61,0.0,0.0,94,0.00,,,0.00,WUHU216DAVISWMX,2013-01-16 12:13:00,
2013-01-16 07:18:00,30.1,28.5,30.16,ENE,61,0.0,0.0,94,0.00,,,0.00,WUHU216DAVISWMX,2013-01-16 12:18:00,
2013-01-16 07:23:00,30.2,28.9,30.15,ENE,61,0.0,0.0,95,0.00,,,0.00,WUHU216DAVISWMX,2013-01-16 12:23:00,
2013-01-16 07:28:00,30.1,28.8,30.16,ENE,61,0.0,0.0,95,0.00,,,0.00,WUHU216DAVISWMX,2013-01-16 12:28:00,
2013-01-16 07:33:00,30.1,28.8,30.16,ENE,61,0.0,0.0,95,0.00,,,0.00,WUHU216DAVISWMX,2013-01-16 12:33:00,
2013-01-16 07:38:00,30.1,28.5,30.15,ENE,61,0.0,0.0,94,0.00,,,0.00,WUHU216DAVISWMX,2013-01-16 12:38:00,
2013-01-16 07:43:00,30.0,28.4,30.15,ENE,61,0.0,0.0,94,0.00,,,0.00,WUHU216DAVISWMX,2013-01-16 12:43:00,
2013-01-16 07:48:00,29.9,28.6,30.14,ENE,61,0.0,0.0,95,0.00,,,0.00,WUHU216DAVISWMX,2013-01-16 12:48:00,
2013-01-16 07:53:00,30.1,28.8,30.14,ENE,61,0.0,0.0,95,0.00,,,0.00,WUHU216DAVISWMX,2013-01-16 12:53:00,
2013-01-16 07:58:00,30.2,28.9,30.13,ENE,61,0.0,0.0,95,0.00,,,0.00,WUHU216DAVISWMX,2013-01-16 12:58:00,
2013-01-16 08:03:00,30.2,28.9,30.13,ENE,61,0.0,0.0,95,0.00,,,0.00,WUHU216DAVISWMX,2013-01-16 13:03:00,
2013-01-16 08:08:00,30.2,28.9,30.13,ENE,61,0.0,0.0,95,0.00,,,0.00,WUHU216DAVISWMX,2013-01-16 13:08:00,
2013-01-16 08:13:00,30.2,28.9,30.14,ENE,61,0.0,0.0,95,0.00,,,0.00,WUHU216DAVISWMX,2013-01-16 13:13:00,
2013-01-16 08:18:00,30.2,28.9,30.14,ENE,61,0.0,0.0,95,0.00,,,0.00,WUHU216DAVISWMX,2013-01-16 13:18:00,
2013-01-16 08:23:00,30.2,28.9,30.13,ENE,61,0.0,0.0,95,0.00,,,0.00,WUHU216DAVISWMX,2013-01-16 13:23:00,
2013-01-16 08:28:00,30.3,29.0,30.13,ENE,61,0.0,0.0,95,0.00,,,0.00,WUHU216DAVISWMX,2013-01-16 13:28:00,
2013-01-16 08:33:00,30.3,29.0,30.13,ENE,60,0.0,0.0,95,0.00,,,0.00,WUHU216DAVISWMX,2013-01-16 13:33:00,
2013-01-16 08:38:00,30.3,29.0,30.13,ENE,60,0.0,0.0,95,0.00,,,0.00,WUHU216DAVISWMX,2013-01-16 13:38:00,
2013-01-16 08:43:00,30.2,28.9,30.13,ENE,60,0.0,0.0,95,0.00,,,0.00,WUHU216DAVISWMX,2013-01-16 13:43:00,
2013-01-16 08:48:00,30.3,29.0,30.12,ENE,60,0.0,0.0,95,0.00,,,0.00,WUHU216DAVISWMX,2013-01-16 13:48:00,
2013-01-16 08:53:00,30.5,29.2,30.12,ENE,60,0.0,0.0,95,0.00,,,0.00,WUHU216DAVISWMX,2013-01-16 13:53:00,
2013-01-16 08:58:00,30.4,29.1,30.12,ENE,60,0.0,0.0,95,0.00,,,0.00,WUHU216DAVISWMX,2013-01-16 13:58:00,
2013-01-16 09:03:00,30.5,29.2,30.12,ENE,60,0.0,0.0,95,0.00,,,0.00,WUHU216DAVISWMX,2013-01-16 14:03:00,
2013-01-16 09:08:00,30.5,29.2,30.11,ENE,60,0.0,0.0,95,0.00,,,0.00,WUHU216DAVISWMX,2013-01-16 14:08:00,
2013-01-16 09:13:00,30.5,29.2,30.10,ENE,60,0.0,0.0,95,0.00,,,0.00,WUHU216DAVISWMX,2013-01-16 14:13:00,
2013-01-16 09:18:00,30.5,29.2,30.09,ENE,60,0.0,0.0,95,0.00,,,0.00,WUHU216DAVISWMX,2013-01-16 14:18:00,
2013-01-16 09:23:00,30.7,29.4,30.09,ENE,60,0.0,0.0,95,0.00,,,0.00,WUHU216DAVISWMX,2013-01-16 14:23:00,
2013-01-16 09:28:00,30.7,29.4,30.08,ENE,60,0.0,0.0,95,0.00,,,0.00,WUHU216DAVISWMX,2013-01-16 14:28:00,
2013-01-16 09:33:00,30.8,29.5,30.08,ENE,60,0.0,0.0,95,0.00,,,0.00,WUHU216DAVISWMX,2013-01-16 14:33:00,
2013-01-16 09:38:00,30.8,29.5,30.08,ENE,60,0.0,0.0,95,0.00,,,0.00,WUHU216DAVISWMX,2013-01-16 14:38:00,
2013-01-16 09:43:00,30.8,29.2,30.08,ENE,60,0.0,0.0,94,0.00,,,0.00,WUHU216DAVISWMX,2013-01-16 14:43:00,
2013-01-16 09:48:00,30.8,29.5,30.07,ENE,60,0.0,0.0,95,0.00,,,0.00,WUHU216DAVISWMX,2013-01-16 14:48:00,
2013-01-16 09:53:00,30.9,29.6,30.06,ENE,60,0.0,0.0,95,0.00,,,0.00,WUHU216DAVISWMX,2013-01-16 14:53:00,
2013-01-16 09:58:00,30.9,29.6,30.05,ENE,60,0.0,0.0,95,0.00,,,0.00,WUHU216DAVISWMX,2013-01-16 14:58:00,
2013-01-16 10:03:00,30.9,29.6,30.06,ENE,60,0.0,0.0,95,0.00,,,0.00,WUHU216DAVISWMX,2013-01-16 15:03:00,
2013-01-16 10:08:00,30.9,29.6,30.05,ENE,60,0.0,0.0,95,0.00,,,0.00,WUHU216DAVISWMX,2013-01-16 15:08:00,
2013-01-16 10:13:00,31.0,29.7,30.04,ENE,75,0.0,0.0,95,0.00,,,0.00,WUHU216DAVISWMX,2013-01-16 15:13:00,
2013-01-16 10:18:00,31.2,29.9,30.04,ENE,67,0.0,1.0,95,0.00,,,0.00,WUHU216DAVISWMX,2013-01-16 15:18:00,
2013-01-16 10:23:00,31.2,29.9,30.04,East,99,0.0,1.0,95,0.00,,,0.00,WUHU216DAVISWMX,2013-01-16 15:23:00,
2013-01-16 10:28:00,31.2,30.2,30.05,East,99,0.0,0.0,96,0.00,,,0.00,WUHU216DAVISWMX,2013-01-16 15:28:00,
2013-01-16 10:33:00,31.2,30.2,30.04,East,99,0.0,0.0,96,0.00,,,0.00,WUHU216DAVISWMX,2013-01-16 15:33:00,
2013-01-16 10:38:00,31.1,30.1,30.04,East,99,0.0,0.0,96,0.00,,,0.00,WUHU216DAVISWMX,2013-01-16 15:38:00,
2013-01-16 10:43:00,31.3,30.3,30.05,East,99,0.0,0.0,96,0.00,,,0.00,WUHU216DAVISWMX,2013-01-16 15:43:00,
2013-01-16 10:48:00,31.2,30.2,30.05,East,99,0.0,0.0,96,0.00,,,0.00,WUHU216DAVISWMX,2013-01-16 15:48:00,
2013-01-16 10:53:00,31.2,30.2,30.04,ENE,70,0.0,0.0,96,0.00,,,0.00,WUHU216DAVISWMX,2013-01-16 15:53:00,
2013-01-16 10:58:00,31.2,30.4,30.04,ENE,70,0.0,0.0,97,0.00,,,0.00,WUHU216DAVISWMX,2013-01-16 15:58:00,
2013-01-16 11:03:00,31.2,30.4,30.03,ENE,71,0.0,0.0,97,0.00,,,0.00,WUHU216DAVISWMX,2013-01-16 16:03:00,
2013-01-16 11:08:00,31.3,30.5,30.02,NNE,29,0.0,0.0,97,0.00,,,0.00,WUHU216DAVISWMX,2013-01-16 16:08:00,
2013-01-16 11:13:00,31.4,30.6,30.01,NNE,29,0.0,0.0,97,0.00,,,0.00,WUHU216DAVISWMX,2013-01-16 16:13:00,
2013-01-16 11:18:00,31.5,30.7,30.01,NNE,29,0.0,0.0,97,0.00,,,0.00,WUHU216DAVISWMX,2013-01-16 16:18:00,
2013-01-16 11:23:00,31.5,30.7,30.01,NNE,29,0.0,0.0,97,0.00,,,0.00,WUHU216DAVISWMX,2013-01-16 16:23:00,
2013-01-16 11:28:00,31.5,30.7,30.00,NNE,29,0.0,0.0,97,0.00,,,0.00,WUHU216DAVISWMX,2013-01-16 16:28:00,
2013-01-16 11:33:00,31.6,30.8,30.00,NNE,29,0.0,0.0,97,0.00,,,0.00,WUHU216DAVISWMX,2013-01-16 16:33:00,
2013-01-16 11:38:00,31.6,30.8,30.00,NNE,29,0.0,0.0,97,0.00,,,0.00,WUHU216DAVISWMX,2013-01-16 16:38:00,
2013-01-16 11:43:00,31.7,30.9,30.00,NNE,29,0.0,0.0,97,0.00,,,0.00,WUHU216DAVISWMX,2013-01-16 16:43:00,
2013-01-16 11:48:00,31.7,30.9,29.99,NNE,29,0.0,0.0,97,0.00,,,0.00,WUHU216DAVISWMX,2013-01-16 16:48:00,
2013-01-16 11:53:00,31.8,31.0,29.99,NNE,29,0.0,0.0,97,0.00,,,0.00,WUHU216DAVISWMX,2013-01-16 16:53:00,
2013-01-16 11:58:00,31.9,31.1,29.99,NNE,29,0.0,0.0,97,0.00,,,0.00,WUHU216DAVISWMX,2013-01-16 16:58:00,
2013-01-16 12:03:00,32.0,31.2,29.99,NNE,29,0.0,0.0,97,0.00,,,0.00,WUHU216DAVISWMX,2013-01-16 17:03:00,
2013-01-16 12:08:00,32.0,31.5,29.99,NNE,29,0.0,0.0,98,0.00,,,0.00,WUHU216DAVISWMX,2013-01-16 17:08:00,
2013-01-16 12:13:00,32.2,31.7,29.99,NNE,29,0.0,0.0,98,0.00,,,0.00,WUHU216DAVISWMX,2013-01-16 17:13:00,
2013-01-16 12:18:00,32.2,31.4,29.98,NNE,29,0.0,0.0,97,0.00,,,0.00,WUHU216DAVISWMX,2013-01-16 17:18:00,
2013-01-16 12:23:00,32.3,31.8,29.97,NNE,29,0.0,0.0,98,0.00,,,0.00,WUHU216DAVISWMX,2013-01-16 17:23:00,
2013-01-16 12:28:00,32.3,31.5,29.96,NNE,29,0.0,0.0,97,0.00,,,0.00,WUHU216DAVISWMX,2013-01-16 17:28:00,
2013-01-16 12:33:00,32.4,31.6,29.96,NNE,29,0.0,0.0,97,0.00,,,0.00,WUHU216DAVISWMX,2013-01-16 17:33:00,
2013-01-16 12:38:00,32.4,31.6,29.96,NNE,29,0.0,0.0,97,0.00,,,0.00,WUHU216DAVISWMX,2013-01-16 17:38:00,
2013-01-16 12:44:00,32.5,32.0,29.96,NNE,29,0.0,0.0,98,0.00,,,0.00,WUHU216DAVISWMX,2013-01-16 17:44:00,
2013-01-16 12:49:00,32.5,32.0,29.96,NNE,29,0.0,0.0,98,0.00,,,0.00,WUHU216DAVISWMX,2013-01-16 17:49:00,
2013-01-16 12:54:00,32.5,31.7,29.97,NNE,29,0.0,0.0,97,0.00,,,0.00,WUHU216DAVISWMX,2013-01-16 17:54:00,
2013-01-16 12:59:00,32.6,31.8,29.97,NNW,327,0.0,0.0,97,0.00,,,0.00,WUHU216DAVISWMX,2013-01-16 17:59:00,
2013-01-16 13:04:00,32.6,31.8,29.97,NNW,327,0.0,0.0,97,0.00,,,0.00,WUHU216DAVISWMX,2013-01-16 18:04:00,
2013-01-16 13:09:00,32.6,31.8,29.96,NNW,327,0.0,0.0,97,0.00,,,0.00,WUHU216DAVISWMX,2013-01-16 18:09:00,
2013-01-16 13:14:00,32.6,31.8,29.95,NNW,327,0.0,0.0,97,0.00,,,0.00,WUHU216DAVISWMX,2013-01-16 18:14:00,
2013-01-16 13:19:00,32.6,31.8,29.94,NNW,327,0.0,0.0,97,0.00,,,0.00,WUHU216DAVISWMX,2013-01-16 18:19:00,
2013-01-16 13:24:00,32.6,31.8,29.94,NNW,327,0.0,0.0,97,0.00,,,0.00,WUHU216DAVISWMX,2013-01-16 18:24:00,
2013-01-16 13:29:00,32.7,31.9,29.93,NNW,327,0.0,0.0,97,0.00,,,0.00,WUHU216DAVISWMX,2013-01-16 18:29:00,
2013-01-16 13:34:00,32.7,31.9,29.93,NNW,327,0.0,0.0,97,0.00,,,0.00,WUHU216DAVISWMX,2013-01-16 18:34:00,
2013-01-16 13:39:00,32.7,31.9,29.93,NNW,327,0.0,0.0,97,0.00,,,0.00,WUHU216DAVISWMX,2013-01-16 18:39:00,
2013-01-16 13:44:00,33.0,32.2,29.92,NNW,327,0.0,0.0,97,0.00,,,0.00,WUHU216DAVISWMX,2013-01-16 18:44:00,
2013-01-16 13:49:00,33.1,32.3,29.90,NNW,327,0.0,0.0,97,0.00,,,0.00,WUHU216DAVISWMX,2013-01-16 18:49:00,
2013-01-16 13:54:00,33.3,32.5,29.88,NNW,327,0.0,0.0,97,0.00,,,0.00,WUHU216DAVISWMX,2013-01-16 18:54:00,
2013-01-16 13:59:00,33.4,32.6,29.88,NNW,327,0.0,0.0,97,0.00,,,0.00,WUHU216DAVISWMX,2013-01-16 18:59:00,
2013-01-16 14:04:00,33.5,32.7,29.87,NNW,327,0.0,0.0,97,0.00,,,0.00,WUHU216DAVISWMX,2013-01-16 19:04:00,
2013-01-16 14:09:00,33.5,32.4,29.87,NNW,327,0.0,0.0,96,0.00,,,0.00,WUHU216DAVISWMX,2013-01-16 19:09:00,
2013-01-16 14:14:00,33.6,32.5,29.87,NNW,327,0.0,0.0,96,0.00,,,0.00,WUHU216DAVISWMX,2013-01-16 19:14:00,
2013-01-16 14:19:00,33.5,32.4,29.87,NNW,327,0.0,0.0,96,0.00,,,0.00,WUHU216DAVISWMX,2013-01-16 19:19:00,
2013-01-16 14:24:00,33.4,32.3,29.89,NNW,327,0.0,0.0,96,0.00,,,0.00,WUHU216DAVISWMX,2013-01-16 19:24:00,
2013-01-16 14:29:00,33.3,32.2,29.89,NNW,327,0.0,0.0,96,0.00,,,0.00,WUHU216DAVISWMX,2013-01-16 19:29:00,
2013-01-16 14:34:00,33.2,32.1,29.88,NNW,327,0.0,0.0,96,0.00,,,0.00,WUHU216DAVISWMX,2013-01-16 19:34:00,
2013-01-16 14:39:00,33.2,32.1,29.89,NNW,327,0.0,0.0,96,0.01,,,0.01,WUHU216DAVISWMX,2013-01-16 19:39:00,
2013-01-16 14:44:00,33.1,32.0,29.89,NNW,327,0.0,0.0,96,0.01,,,0.01,WUHU216DAVISWMX,2013-01-16 19:44:00,
2013-01-16 14:49:00,33.0,32.2,29.91,NNW,327,0.0,0.0,97,0.01,,,0.01,WUHU216DAVISWMX,2013-01-16 19:49:00,
2013-01-16 14:54:00,32.8,32.0,29.90,NNW,327,0.0,0.0,97,0.01,,,0.01,WUHU216DAVISWMX,2013-01-16 19:54:00,
2013-01-16 14:59:00,32.8,32.3,29.89,NNW,327,0.0,0.0,98,0.01,,,0.01,WUHU216DAVISWMX,2013-01-16 19:59:00,
2013-01-16 15:04:00,33.0,32.2,29.90,NNW,327,0.0,0.0,97,0.01,,,0.01,WUHU216DAVISWMX,2013-01-16 20:04:00,
2013-01-16 15:09:00,33.0,32.5,29.90,NNW,327,0.0,0.0,98,0.01,,,0.01,WUHU216DAVISWMX,2013-01-16 20:09:00,
2013-01-16 15:14:00,33.0,32.5,29.89,NNW,327,0.0,0.0,98,0.01,,,0.01,WUHU216DAVISWMX,2013-01-16 20:14:00,
2013-01-16 15:19:00,33.0,32.5,29.90,NNW,327,0.0,0.0,98,0.01,,,0.01,WUHU216DAVISWMX,2013-01-16 20:19:00,
2013-01-16 15:24:00,33.1,32.6,29.90,NNW,327,0.0,0.0,98,0.01,,,0.01,WUHU216DAVISWMX,2013-01-16 20:24:00,
2013-01-16 15:29:00,33.0,32.5,29.90,NNW,327,0.0,0.0,98,0.01,,,0.01,WUHU216DAVISWMX,2013-01-16 20:29:00,
2013-01-16 15:34:00,33.0,32.5,29.89,NNW,327,0.0,0.0,98,0.00,,,0.01,WUHU216DAVISWMX,2013-01-16 20:34:00,
2013-01-16 15:39:00,33.0,32.5,29.89,NNW,327,0.0,0.0,98,0.00,,,0.01,WUHU216DAVISWMX,2013-01-16 20:39:00,
2013-01-16 15:44:00,33.0,32.5,29.89,NNW,327,0.0,0.0,98,0.00,,,0.01,WUHU216DAVISWMX,2013-01-16 20:44:00,
2013-01-16 15:49:00,33.0,32.5,29.89,NNW,327,0.0,0.0,98,0.00,,,0.01,WUHU216DAVISWMX,2013-01-16 20:49:00,
2013-01-16 15:54:00,33.0,32.5,29.90,NNW,327,0.0,0.0,98,0.00,,,0.01,WUHU216DAVISWMX,2013-01-16 20:54:00,
2013-01-16 15:59:00,33.1,32.6,29.90,NNW,327,0.0,0.0,98,0.00,,,0.01,WUHU216DAVISWMX,2013-01-16 20:59:00,
2013-01-16 16:04:00,33.1,32.6,29.89,NNW,327,0.0,0.0,98,0.00,,,0.01,WUHU216DAVISWMX,2013-01-16 21:04:00,
2013-01-16 16:09:00,33.1,32.6,29.89,NNW,327,0.0,0.0,98,0.00,,,0.01,WUHU216DAVISWMX,2013-01-16 21:09:00,
2013-01-16 16:14:00,33.1,32.6,29.89,NNW,327,0.0,0.0,98,0.00,,,0.01,WUHU216DAVISWMX,2013-01-16 21:14:00,
2013-01-16 16:19:00,33.1,32.6,29.89,NNW,327,0.0,0.0,98,0.00,,,0.01,WUHU216DAVISWMX,2013-01-16 21:19:00,
2013-01-16 16:24:00,33.1,32.6,29.89,NNW,327,0.0,0.0,98,0.00,,,0.01,WUHU216DAVISWMX,2013-01-16 21:24:00,
2013-01-16 16:29:00,33.0,32.5,29.89,NNW,327,0.0,0.0,98,0.01,,,0.02,WUHU216DAVISWMX,2013-01-16 21:29:00,
2013-01-16 16:34:00,32.9,32.4,29.89,NNW,327,0.0,0.0,98,0.01,,,0.02,WUHU216DAVISWMX,2013-01-16 21:34:00,
2013-01-16 16:39:00,33.0,32.5,29.89,NNW,327,0.0,0.0,98,0.01,,,0.02,WUHU216DAVISWMX,2013-01-16 21:39:00,
2013-01-16 16:44:00,32.9,32.1,29.89,NNW,327,0.0,0.0,97,0.01,,,0.02,WUHU216DAVISWMX,2013-01-16 21:44:00,
2013-01-16 16:49:00,32.9,32.4,29.88,NNW,327,0.0,0.0,98,0.01,,,0.02,WUHU216DAVISWMX,2013-01-16 21:49:00,
2013-01-16 16:54:00,33.0,32.5,29.89,NNW,327,0.0,0.0,98,0.01,,,0.02,WUHU216DAVISWMX,2013-01-16 21:54:00,
2013-01-16 16:59:00,32.8,32.3,29.89,NNW,327,0.0,0.0,98,0.01,,,0.02,WUHU216DAVISWMX,2013-01-16 21:59:00,
2013-01-16 17:04:00,33.0,32.5,29.89,NNW,327,0.0,0.0,98,0.01,,,0.02,WUHU216DAVISWMX,2013-01-16 22:04:00,
2013-01-16 17:09:00,32.9,32.4,29.89,NNW,327,0.0,0.0,98,0.01,,,0.02,WUHU216DAVISWMX,2013-01-16 22:09:00,
2013-01-16 17:14:00,32.8,32.3,29.88,NNW,327,0.0,0.0,98,0.01,,,0.02,WUHU216DAVISWMX,2013-01-16 22:14:00,
2013-01-16 17:19:00,33.0,32.5,29.88,NNW,327,0.0,0.0,98,0.01,,,0.02,WUHU216DAVISWMX,2013-01-16 22:19:00,
2013-01-16 17:24:00,33.0,32.5,29.88,NNW,327,0.0,0.0,98,0.01,,,0.02,WUHU216DAVISWMX,2013-01-16 22:24:00,
2013-01-16 17:29:00,33.1,32.3,29.88,NNW,327,0.0,0.0,97,0.00,,,0.02,WUHU216DAVISWMX,2013-01-16 22:29:00,
2013-01-16 17:34:00,33.1,32.6,29.88,NNW,327,0.0,0.0,98,0.00,,,0.02,WUHU216DAVISWMX,2013-01-16 22:34:00,
2013-01-16 17:39:00,33.0,32.5,29.89,NNW,327,0.0,0.0,98,0.00,,,0.02,WUHU216DAVISWMX,2013-01-16 22:39:00,
2013-01-16 17:44:00,33.0,32.5,29.89,NNW,327,0.0,0.0,98,0.00,,,0.02,WUHU216DAVISWMX,2013-01-16 22:44:00,
2013-01-16 17:49:00,32.7,32.2,29.90,NNW,327,0.0,0.0,98,0.00,,,0.02,WUHU216DAVISWMX,2013-01-16 22:49:00,
2013-01-16 17:54:00,32.8,32.3,29.89,NNW,327,0.0,0.0,98,0.00,,,0.02,WUHU216DAVISWMX,2013-01-16 22:54:00,
2013-01-16 17:59:00,33.0,32.5,29.88,NNW,327,0.0,0.0,98,0.00,,,0.02,WUHU216DAVISWMX,2013-01-16 22:59:00,
2013-01-16 18:04:00,33.1,32.6,29.89,NNW,327,0.0,0.0,98,0.00,,,0.02,WUHU216DAVISWMX,2013-01-16 23:04:00,
2013-01-16 18:09:00,33.0,32.5,29.90,NNW,327,0.0,0.0,98,0.00,,,0.02,WUHU216DAVISWMX,2013-01-16 23:09:00,
2013-01-16 18:14:00,32.9,32.4,29.89,NNW,327,0.0,0.0,98,0.00,,,0.02,WUHU216DAVISWMX,2013-01-16 23:14:00,
2013-01-16 18:19:00,32.9,32.4,29.90,NNW,327,0.0,0.0,98,0.00,,,0.02,WUHU216DAVISWMX,2013-01-16 23:19:00,
2013-01-16 18:24:00,33.0,32.5,29.89,NNW,327,0.0,0.0,98,0.00,,,0.02,WUHU216DAVISWMX,2013-01-16 23:24:00,
2013-01-16 18:29:00,33.0,32.7,29.89,NNW,327,0.0,0.0,99,0.00,,,0.02,WUHU216DAVISWMX,2013-01-16 23:29:00,
2013-01-16 18:34:00,33.1,32.6,29.88,NNW,327,0.0,0.0,98,0.00,,,0.02,WUHU216DAVISWMX,2013-01-16 23:34:00,
2013-01-16 18:39:00,33.2,32.7,29.87,NNW,327,0.0,0.0,98,0.00,,,0.02,WUHU216DAVISWMX,2013-01-16 23:39:00,
2013-01-16 18:44:00,33.1,32.6,29.87,NNW,327,0.0,0.0,98,0.00,,,0.02,WUHU216DAVISWMX,2013-01-16 23:44:00,
2013-01-16 18:49:00,33.0,32.5,29.87,NNW,327,0.0,0.0,98,0.00,,,0.02,WUHU216DAVISWMX,2013-01-16 23:49:00,
2013-01-16 18:54:00,32.9,32.4,29.87,NNW,327,0.0,0.0,98,0.00,,,0.02,WUHU216DAVISWMX,2013-01-16 23:54:00,
2013-01-16 18:59:00,32.8,32.3,29.86,NNW,327,0.0,0.0,98,0.00,,,0.02,WUHU216DAVISWMX,2013-01-16 23:59:00,
2013-01-16 19:04:00,32.7,32.2,29.86,NNW,327,0.0,0.0,98,0.00,,,0.02,WUHU216DAVISWMX,2013-01-17 00:04:00,
2013-01-16 19:09:00,32.7,32.2,29.86,NNW,327,0.0,0.0,98,0.00,,,0.02,WUHU216DAVISWMX,2013-01-17 00:09:00,
2013-01-16 19:14:00,32.7,32.4,29.87,NNW,327,0.0,0.0,99,0.00,,,0.02,WUHU216DAVISWMX,2013-01-17 00:14:00,
2013-01-16 19:19:00,32.7,32.2,29.87,NNW,327,0.0,0.0,98,0.00,,,0.02,WUHU216DAVISWMX,2013-01-17 00:19:00,
2013-01-16 19:24:00,32.7,32.2,29.87,NNW,327,0.0,0.0,98,0.00,,,0.02,WUHU216DAVISWMX,2013-01-17 00:24:00,
2013-01-16 19:29:00,32.6,32.3,29.88,NNW,327,0.0,0.0,99,0.00,,,0.02,WUHU216DAVISWMX,2013-01-17 00:29:00,
2013-01-16 19:34:00,32.7,32.4,29.88,NNW,327,0.0,0.0,99,0.00,,,0.02,WUHU216DAVISWMX,2013-01-17 00:34:00,
2013-01-16 19:39:00,32.6,32.3,29.88,NNW,327,0.0,0.0,99,0.01,,,0.03,WUHU216DAVISWMX,2013-01-17 00:39:00,
2013-01-16 19:44:00,32.7,32.4,29.87,NNW,327,0.0,0.0,99,0.01,,,0.03,WUHU216DAVISWMX,2013-01-17 00:44:00,
2013-01-16 19:49:00,32.6,32.3,29.87,NNW,327,0.0,0.0,99,0.01,,,0.03,WUHU216DAVISWMX,2013-01-17 00:49:00,
2013-01-16 19:54:00,32.6,32.3,29.87,NNW,327,0.0,0.0,99,0.01,,,0.03,WUHU216DAVISWMX,2013-01-17 00:54:00,
2013-01-16 19:59:00,32.7,32.4,29.87,NNW,327,0.0,0.0,99,0.01,,,0.03,WUHU216DAVISWMX,2013-01-17 00:59:00,
2013-01-16 20:04:00,32.8,32.5,29.86,NNW,327,0.0,0.0,99,0.01,,,0.03,WUHU216DAVISWMX,2013-01-17 01:04:00,
2013-01-16 20:09:00,32.9,32.6,29.87,NNW,327,0.0,0.0,99,0.01,,,0.03,WUHU216DAVISWMX,2013-01-17 01:09:00,
2013-01-16 20:14:00,32.8,32.5,29.87,NNW,327,0.0,0.0,99,0.01,,,0.03,WUHU216DAVISWMX,2013-01-17 01:14:00,
2013-01-16 20:19:00,32.8,32.5,29.87,NNW,327,0.0,0.0,99,0.01,,,0.03,WUHU216DAVISWMX,2013-01-17 01:19:00,
2013-01-16 20:24:00,32.7,32.4,29.86,NNW,327,0.0,0.0,99,0.01,,,0.03,WUHU216DAVISWMX,2013-01-17 01:24:00,
2013-01-16 20:29:00,32.8,32.5,29.86,NNW,327,0.0,0.0,99,0.01,,,0.03,WUHU216DAVISWMX,2013-01-17 01:29:00,
2013-01-16 20:34:00,32.7,32.4,29.87,NNW,327,0.0,0.0,99,0.01,,,0.03,WUHU216DAVISWMX,2013-01-17 01:34:00,
2013-01-16 20:39:00,32.8,32.5,29.87,NNW,327,0.0,0.0,99,0.00,,,0.03,WUHU216DAVISWMX,2013-01-17 01:39:00,
2013-01-16 20:44:00,32.7,32.4,29.86,NNW,327,0.0,0.0,99,0.00,,,0.03,WUHU216DAVISWMX,2013-01-17 01:44:00,
2013-01-16 20:49:00,32.6,32.3,29.86,NNW,327,0.0,0.0,99,0.00,,,0.03,WUHU216DAVISWMX,2013-01-17 01:49:00,
2013-01-16 20:54:00,32.7,32.4,29.86,NNW,327,0.0,0.0,99,0.00,,,0.03,WUHU216DAVISWMX,2013-01-17 01:54:00,
2013-01-16 20:59:00,32.6,32.3,29.86,NNW,327,0.0,0.0,99,0.00,,,0.03,WUHU216DAVISWMX,2013-01-17 01:59:00,
2013-01-16 21:04:00,32.6,32.3,29.87,NNW,327,0.0,0.0,99,0.00,,,0.03,WUHU216DAVISWMX,2013-01-17 02:04:00,
2013-01-16 21:09:00,32.7,32.4,29.86,NNW,327,0.0,0.0,99,0.00,,,0.03,WUHU216DAVISWMX,2013-01-17 02:09:00,
2013-01-16 21:14:00,32.6,32.3,29.86,NNW,327,0.0,0.0,99,0.00,,,0.03,WUHU216DAVISWMX,2013-01-17 02:14:00,
2013-01-16 21:19:00,32.5,32.2,29.85,NNW,327,0.0,0.0,99,0.00,,,0.03,WUHU216DAVISWMX,2013-01-17 02:19:00,
2013-01-16 21:24:00,32.5,32.2,29.86,NNW,327,0.0,0.0,99,0.00,,,0.03,WUHU216DAVISWMX,2013-01-17 02:24:00,
2013-01-16 21:29:00,32.4,32.1,29.86,NNW,327,0.0,0.0,99,0.00,,,0.03,WUHU216DAVISWMX,2013-01-17 02:29:00,
2013-01-16 21:34:00,32.3,32.0,29.85,NNW,327,0.0,0.0,99,0.00,,,0.03,WUHU216DAVISWMX,2013-01-17 02:34:00,
2013-01-16 21:39:00,32.3,32.0,29.85,NNW,327,0.0,0.0,99,0.00,,,0.03,WUHU216DAVISWMX,2013-01-17 02:39:00,
2013-01-16 21:44:00,32.3,32.0,29.85,NNW,327,0.0,0.0,99,0.00,,,0.03,WUHU216DAVISWMX,2013-01-17 02:44:00,
2013-01-16 21:49:00,32.2,31.9,29.86,NNW,327,0.0,0.0,99,0.00,,,0.03,WUHU216DAVISWMX,2013-01-17 02:49:00,
2013-01-16 21:54:00,32.2,31.9,29.86,NNW,327,0.0,0.0,99,0.00,,,0.03,WUHU216DAVISWMX,2013-01-17 02:54:00,
2013-01-16 21:59:00,32.2,31.9,29.86,NNW,327,0.0,0.0,99,0.00,,,0.03,WUHU216DAVISWMX,2013-01-17 02:59:00,
2013-01-16 22:04:00,32.3,32.0,29.86,NNW,327,0.0,0.0,99,0.00,,,0.03,WUHU216DAVISWMX,2013-01-17 03:04:00,
2013-01-16 22:09:00,32.3,32.0,29.85,NNW,327,0.0,0.0,99,0.00,,,0.03,WUHU216DAVISWMX,2013-01-17 03:09:00,
2013-01-16 22:14:00,32.3,32.0,29.85,NNW,327,0.0,0.0,99,0.00,,,0.03,WUHU216DAVISWMX,2013-01-17 03:14:00,
2013-01-16 22:19:00,32.4,32.1,29.85,NNW,327,0.0,0.0,99,0.00,,,0.03,WUHU216DAVISWMX,2013-01-17 03:19:00,
2013-01-16 22:24:00,32.4,32.1,29.85,NNW,327,0.0,0.0,99,0.00,,,0.03,WUHU216DAVISWMX,2013-01-17 03:24:00,
2013-01-16 22:29:00,32.4,32.1,29.85,NNW,327,0.0,0.0,99,0.00,,,0.03,WUHU216DAVISWMX,2013-01-17 03:29:00,
2013-01-16 22:34:00,32.4,32.1,29.85,NNW,327,0.0,0.0,99,0.00,,,0.03,WUHU216DAVISWMX,2013-01-17 03:34:00,
2013-01-16 22:39:00,32.4,32.1,29.85,NNW,327,0.0,0.0,99,0.00,,,0.03,WUHU216DAVISWMX,2013-01-17 03:39:00,
2013-01-16 22:44:00,32.4,32.1,29.85,NNW,327,0.0,0.0,99,0.00,,,0.03,WUHU216DAVISWMX,2013-01-17 03:44:00,
2013-01-16 22:49:00,32.4,32.1,29.85,NNW,327,0.0,0.0,99,0.00,,,0.03,WUHU216DAVISWMX,2013-01-17 03:49:00,
2013-01-16 22:54:00,32.5,32.2,29.85,NNW,327,0.0,0.0,99,0.00,,,0.03,WUHU216DAVISWMX,2013-01-17 03:54:00,
2013-01-16 23:00:00,32.4,32.1,29.85,NNW,327,0.0,0.0,99,0.00,,,0.03,WUHU216DAVISWMX,2013-01-17 04:00:00,
2013-01-16 23:05:00,32.4,32.1,29.85,NNW,327,0.0,0.0,99,0.00,,,0.03,WUHU216DAVISWMX,2013-01-17 04:05:00,
2013-01-16 23:10:00,32.5,32.2,29.85,NNW,327,0.0,0.0,99,0.00,,,0.03,WUHU216DAVISWMX,2013-01-17 04:10:00,
2013-01-16 23:15:00,32.4,32.1,29.85,NNW,327,0.0,0.0,99,0.00,,,0.03,WUHU216DAVISWMX,2013-01-17 04:15:00,
2013-01-16 23:20:00,32.2,31.9,29.84,NNW,327,0.0,0.0,99,0.00,,,0.03,WUHU216DAVISWMX,2013-01-17 04:20:00,
2013-01-16 23:25:00,32.2,31.9,29.84,NNW,327,0.0,0.0,99,0.00,,,0.03,WUHU216DAVISWMX,2013-01-17 04:25:00,
2013-01-16 23:30:00,32.1,31.8,29.85,NNW,327,0.0,0.0,99,0.00,,,0.03,WUHU216DAVISWMX,2013-01-17 04:30:00,
2013-01-16 23:35:00,32.0,31.5,29.85,NNW,327,0.0,0.0,98,0.00,,,0.03,WUHU216DAVISWMX,2013-01-17 04:35:00,
2013-01-16 23:40:00,31.8,31.5,29.85,NNW,327,0.0,0.0,99,0.00,,,0.03,WUHU216DAVISWMX,2013-01-17 04:40:00,
2013-01-16 23:45:00,31.7,31.4,29.85,NNW,327,0.0,0.0,99,0.00,,,0.03,WUHU216DAVISWMX,2013-01-17 04:45:00,
2013-01-16 23:50:00,31.6,31.3,29.85,NNW,327,0.0,0.0,99,0.00,,,0.03,WUHU216DAVISWMX,2013-01-17 04:50:00,
2013-01-16 23:55:00,31.5,31.2,29.85,NNW,327,0.0,0.0,99,0.00,,,0.03,WUHU216DAVISWMX,2013-01-17 04:55:00,